TimeCDT,TemperatureF,Dew PointF,Humidity,Sea Level PressureIn,VisibilityMPH,Wind Direction,Wind SpeedMPH,Gust SpeedMPH,PrecipitationIn,Events,Conditions,WindDirDegrees,DateUTC
12:15 AM,57.2,46.4,67,29.92,10.0,SSE,9.2,-,N/A,,Clear,160,2013-09-30 05:15:00
12:35 AM,57.0,46.4,68,29.91,10.0,South,8.1,-,N/A,,Clear,170,2013-09-30 05:35:00
12:55 AM,55.8,46.2,70,29.91,10.0,South,8.1,-,N/A,,Clear,170,2013-09-30 05:55:00
1:15 AM,54.9,46.4,73,29.89,10.0,SSE,9.2,-,N/A,,Clear,160,2013-09-30 06:15:00
1:35 AM,54.5,46.4,74,29.90,10.0,South,9.2,-,N/A,,Clear,170,2013-09-30 06:35:00
1:55 AM,53.6,46.4,77,29.89,10.0,South,8.1,-,N/A,,Clear,170,2013-09-30 06:55:00
2:15 AM,53.6,46.4,77,29.90,10.0,South,6.9,-,N/A,,Clear,170,2013-09-30 07:15:00
2:35 AM,52.7,46.4,79,29.90,10.0,South,5.8,-,N/A,,Clear,170,2013-09-30 07:35:00
2:55 AM,52.0,46.6,82,29.88,10.0,South,6.9,-,N/A,,Clear,170,2013-09-30 07:55:00
3:15 AM,52.3,46.8,81,29.88,10.0,South,5.8,-,N/A,,Clear,190,2013-09-30 08:15:00
3:35 AM,51.1,46.6,85,29.88,10.0,SSW,5.8,-,N/A,,Clear,200,2013-09-30 08:35:00
3:55 AM,50.7,46.6,86,29.88,10.0,South,5.8,-,N/A,,Clear,190,2013-09-30 08:55:00
4:15 AM,52.0,47.3,84,29.87,10.0,South,6.9,-,N/A,,Clear,180,2013-09-30 09:15:00
4:35 AM,51.6,47.3,85,29.87,10.0,South,6.9,-,N/A,,Clear,180,2013-09-30 09:35:00
4:55 AM,50.9,47.3,87,29.87,10.0,South,5.8,-,N/A,,Clear,180,2013-09-30 09:55:00
5:15 AM,51.3,47.5,87,29.87,10.0,South,5.8,-,N/A,,Clear,180,2013-09-30 10:15:00
5:35 AM,51.1,47.5,87,29.87,10.0,South,4.6,-,N/A,,Clear,180,2013-09-30 10:35:00
5:55 AM,50.4,47.3,89,29.86,10.0,SSE,5.8,-,N/A,,Clear,160,2013-09-30 10:55:00
6:15 AM,50.2,47.3,90,29.86,10.0,South,5.8,-,N/A,,Clear,170,2013-09-30 11:15:00
6:35 AM,50.4,47.3,89,29.87,10.0,Calm,Calm,-,N/A,,Clear,0,2013-09-30 11:35:00
6:55 AM,50.7,47.7,89,29.87,10.0,South,6.9,-,N/A,,Clear,180,2013-09-30 11:55:00
7:15 AM,50.5,47.7,90,29.87,10.0,South,6.9,-,N/A,,Clear,180,2013-09-30 12:15:00
7:35 AM,50.4,47.5,90,29.86,10.0,South,6.9,-,N/A,,Clear,170,2013-09-30 12:35:00
7:55 AM,51.1,48.2,90,29.87,10.0,South,6.9,-,N/A,,Clear,170,2013-09-30 12:55:00
8:15 AM,51.8,48.2,88,29.86,10.0,South,5.8,-,N/A,,Clear,170,2013-09-30 13:15:00
8:35 AM,52.0,48.6,88,29.87,10.0,South,5.8,-,N/A,,Clear,170,2013-09-30 13:35:00
8:55 AM,52.7,49.1,88,29.86,10.0,South,5.8,-,N/A,,Clear,180,2013-09-30 13:55:00
9:15 AM,54.3,50.2,86,29.85,10.0,South,9.2,-,N/A,,Clear,190,2013-09-30 14:15:00
9:35 AM,56.3,50.9,82,29.86,10.0,SSW,10.4,-,N/A,,Clear,200,2013-09-30 14:35:00
9:55 AM,58.1,52.0,80,29.86,10.0,South,8.1,-,N/A,,Clear,190,2013-09-30 14:55:00
10:15 AM,60.4,52.3,75,29.85,10.0,South,8.1,-,N/A,,Clear,190,2013-09-30 15:15:00
10:35 AM,63.0,52.2,68,29.85,10.0,South,10.4,-,N/A,,Clear,190,2013-09-30 15:35:00
10:55 AM,67.1,51.3,57,29.85,10.0,SSW,12.7,18.4,N/A,,Clear,210,2013-09-30 15:55:00
11:15 AM,66.4,50.0,56,29.84,10.0,SSW,11.5,19.6,N/A,,Clear,200,2013-09-30 16:15:00
11:35 AM,70.5,50.9,50,29.84,10.0,SSW,13.8,-,N/A,,Clear,210,2013-09-30 16:35:00
11:55 AM,73.0,49.5,43,29.83,10.0,SSW,16.1,-,N/A,,Clear,200,2013-09-30 16:55:00
12:15 PM,73.4,48.9,42,29.83,10.0,SSW,17.3,24.2,N/A,,Clear,210,2013-09-30 17:15:00
12:35 PM,74.8,49.6,41,29.82,10.0,SSW,18.4,23.0,N/A,,Clear,210,2013-09-30 17:35:00
12:55 PM,75.2,49.1,40,29.81,10.0,SW,16.1,23.0,N/A,,Clear,220,2013-09-30 17:55:00
1:15 PM,76.5,50.2,40,29.81,10.0,South,18.4,23.0,N/A,,Clear,190,2013-09-30 18:15:00
1:35 PM,77.0,49.5,38,29.80,10.0,SSW,18.4,24.2,N/A,,Clear,200,2013-09-30 18:35:00
1:55 PM,77.9,49.1,36,29.80,7.0,SSW,17.3,23.0,N/A,,Clear,200,2013-09-30 18:55:00
2:15 PM,78.8,49.3,35,29.78,10.0,South,16.1,26.5,N/A,,Clear,190,2013-09-30 19:15:00
2:35 PM,79.5,49.5,35,29.78,10.0,South,17.3,23.0,N/A,,Clear,190,2013-09-30 19:35:00
2:55 PM,79.7,49.6,35,29.78,10.0,South,13.8,-,N/A,,Clear,190,2013-09-30 19:55:00
3:15 PM,79.7,48.2,33,29.77,10.0,South,16.1,21.9,N/A,,Clear,190,2013-09-30 20:15:00
3:35 PM,79.7,50.0,35,29.77,10.0,SSW,16.1,19.6,N/A,,Clear,210,2013-09-30 20:35:00
3:55 PM,79.9,51.1,37,29.76,10.0,SSW,17.3,-,N/A,,Clear,200,2013-09-30 20:55:00
4:15 PM,79.7,50.4,36,29.76,10.0,SSW,16.1,21.9,N/A,,Clear,200,2013-09-30 21:15:00
4:35 PM,79.7,50.5,36,29.75,10.0,SSW,18.4,21.9,N/A,,Clear,200,2013-09-30 21:35:00
4:55 PM,79.2,50.4,36,29.75,10.0,SSW,17.3,23.0,N/A,,Clear,200,2013-09-30 21:55:00
5:15 PM,79.0,50.7,37,29.75,10.0,SSW,13.8,19.6,N/A,,Clear,200,2013-09-30 22:15:00
5:35 PM,77.7,50.4,38,29.75,10.0,South,12.7,-,N/A,,Clear,190,2013-09-30 22:35:00
5:55 PM,77.0,50.9,40,29.75,10.0,South,11.5,-,N/A,,Clear,190,2013-09-30 22:55:00
6:15 PM,76.5,51.8,42,29.75,10.0,South,10.4,-,N/A,,Clear,190,2013-09-30 23:15:00
6:35 PM,75.2,52.5,45,29.75,10.0,South,10.4,-,N/A,,Clear,180,2013-09-30 23:35:00
6:55 PM,74.1,52.9,47,29.75,10.0,South,10.4,-,N/A,,Clear,180,2013-09-30 23:55:00
7:15 PM,72.9,52.3,48,29.74,10.0,South,10.4,-,N/A,,Clear,170,2013-10-01 00:15:00
7:35 PM,71.6,52.7,51,29.75,10.0,South,9.2,-,N/A,,Clear,170,2013-10-01 00:35:00
7:55 PM,70.9,52.3,52,29.75,10.0,South,10.4,16.1,N/A,,Clear,170,2013-10-01 00:55:00
8:15 PM,70.7,52.0,51,29.75,10.0,South,13.8,-,N/A,,Clear,180,2013-10-01 01:15:00
8:35 PM,70.2,51.8,52,29.76,10.0,South,13.8,20.7,N/A,,Clear,180,2013-10-01 01:35:00
8:55 PM,69.4,51.8,53,29.77,10.0,South,12.7,-,N/A,,Clear,170,2013-10-01 01:55:00
9:15 PM,68.9,51.8,54,29.77,10.0,South,12.7,-,N/A,,Clear,170,2013-10-01 02:15:00
9:35 PM,67.5,52.0,58,29.77,10.0,South,11.5,-,N/A,,Clear,170,2013-10-01 02:35:00
9:55 PM,66.6,52.2,60,29.78,10.0,South,11.5,-,N/A,,Clear,170,2013-10-01 02:55:00
10:15 PM,66.0,52.2,61,29.78,10.0,South,11.5,-,N/A,,Clear,170,2013-10-01 03:15:00
10:35 PM,65.3,52.2,62,29.80,10.0,South,9.2,-,N/A,,Clear,180,2013-10-01 03:35:00
10:55 PM,64.2,52.7,66,29.81,10.0,South,8.1,-,N/A,,Clear,180,2013-10-01 03:55:00
11:15 PM,62.2,52.7,71,29.81,10.0,South,8.1,-,N/A,,Clear,180,2013-10-01 04:15:00
11:35 PM,62.6,52.7,70,29.81,10.0,South,10.4,-,N/A,,Clear,170,2013-10-01 04:35:00
11:55 PM,62.6,52.7,70,29.81,10.0,South,10.4,-,N/A,,Clear,180,2013-10-01 04:55:00